Terminal Aerodrome Forecast
Issued by NWS Billings, MT

Home | Current Version | Previous Version | Text Only | Print | Product List | Glossary Off
Versions: 1 2 3 4 5 6 7 8 9 10 11 12 13 14 15 16 17 18 19 20 21 22 23 24 25 26 27 28 29 30 31 32 33 34

000
FTUS45 KBYZ 231739
TAFMLS
TAF
KMLS 231739Z 2318/2418 14010G17KT P6SM SCT120
     FM240100 13013G21KT P6SM VCTS SCT080CB BKN250
     FM240600 13009KT P6SM FEW150
     FM241700 28010KT P6SM SCT150=

USA.gov is the U.S. government's official web portal to all federal, state and local government web resources and services.